• în Republica Moldova
  • Lista ţărilor
  • Pe 7 zile
  • Temperatura apei
  • Hartă satelitară
  • Meteo pe hartă
  • Widget-uri
  • user-avatar
    Intrare

    Meteo pe oră la Newcastle

    Astăzi, 12 Decembrie, Miercuri

    Timp Temperatura Precipitaţii Vânt Presiune Umiditate
    00:00 +19°C° 0 mm 1 m/s 761 mmHg 97%
    01:00 +20°C° 0 mm 1 m/s 761 mmHg 97%
    02:00 +20°C° 0 mm 1 m/s 761 mmHg 97%
    03:00 +20°C° 0 mm 1 m/s 761 mmHg 97%
    04:00 +19°C° 0 mm 2 m/s 760 mmHg 97%
    05:00 +20°C° 0.1 mm 2 m/s 760 mmHg 95%
    06:00 +20°C° 0.1 mm 2 m/s 761 mmHg 93%
    07:00 +21°C° 0.1 mm 2 m/s 761 mmHg 91%
    08:00 +22°C° 0.2 mm 3 m/s 761 mmHg 84%
    09:00 +25°C° 0.2 mm 3 m/s 760 mmHg 77%
    10:00 +24°C° 0 mm 3 m/s 761 mmHg 81%
    11:00 +24°C° 0.1 mm 3 m/s 760 mmHg 80%
    12:00 +24°C° 0.1 mm 3 m/s 760 mmHg 79%
    13:00 +23°C° 0.1 mm 4 m/s 759 mmHg 78%
    14:00 +25°C° 0 mm 4 m/s 759 mmHg 75%
    15:00 +26°C° 0 mm 4 m/s 758 mmHg 72%
    16:00 +25°C° 0 mm 4 m/s 758 mmHg 77%
    17:00 +23°C° 0 mm 4 m/s 758 mmHg 79%
    18:00 +22°C° 0 mm 4 m/s 758 mmHg 82%
    19:00 +22°C° 0 mm 4 m/s 757 mmHg 85%
    20:00 +21°C° 0 mm 4 m/s 757 mmHg 88%
    21:00 +21°C° 0 mm 4 m/s 757 mmHg 90%
    22:00 +20°C° 0 mm 4 m/s 757 mmHg 93%
    23:00 +20°C° 0.1 mm 4 m/s 756 mmHg 94%

    Mâine, 13 Decembrie, Joi

    Timp Temperatura Precipitaţii Vânt Presiune Umiditate
    00:00 +20°C° 0.1 mm 4 m/s 756 mmHg 95%
    01:00 +20°C° 0.1 mm 4 m/s 755 mmHg 96%
    02:00 +20°C° 0.4 mm 4 m/s 755 mmHg 96%
    03:00 +20°C° 0.4 mm 5 m/s 754 mmHg 97%
    04:00 +19°C° 0.4 mm 5 m/s 753 mmHg 98%
    05:00 +20°C° 0.6 mm 4 m/s 753 mmHg 96%
    06:00 +21°C° 0.6 mm 4 m/s 753 mmHg 93%
    07:00 +22°C° 0.6 mm 4 m/s 753 mmHg 91%
    08:00 +25°C° 0.4 mm 4 m/s 753 mmHg 79%
    09:00 +28°C° 0.4 mm 4 m/s 752 mmHg 67%
    10:00 +30°C° 0.4 mm 3 m/s 751 mmHg 56%
    11:00 +34°C° 0.1 mm 4 m/s 751 mmHg 49%
    12:00 +36°C° 0.1 mm 5 m/s 750 mmHg 42%
    13:00 +39°C° 0.1 mm 5 m/s 749 mmHg 35%
    14:00 +36°C° 0.4 mm 6 m/s 748 mmHg 42%
    15:00 +34°C° 0.4 mm 7 m/s 748 mmHg 49%
    16:00 +32°C° 0.4 mm 8 m/s 748 mmHg 56%
    17:00 +28°C° 1.7 mm 7 m/s 748 mmHg 68%
    18:00 +24°C° 1.7 mm 6 m/s 748 mmHg 79%
    19:00 +21°C° 1.7 mm 6 m/s 748 mmHg 90%
    20:00 +21°C° 1.2 mm 5 m/s 748 mmHg 91%
    21:00 +20°C° 1.2 mm 5 m/s 748 mmHg 93%
    22:00 +19°C° 1.2 mm 5 m/s 748 mmHg 94%
    23:00 +19°C° 0 mm 5 m/s 748 mmHg 93%

    Poimâine, 14 Decembrie, Vineri

    Timp Temperatura Precipitaţii Vânt Presiune Umiditate
    00:00 +19°C° 0 mm 5 m/s 748 mmHg 93%
    01:00 +19°C° 0 mm 5 m/s 748 mmHg 93%
    02:00 +19°C° 0 mm 4 m/s 748 mmHg 92%
    03:00 +19°C° 0 mm 3 m/s 748 mmHg 90%
    04:00 +19°C° 0 mm 2 m/s 748 mmHg 89%
    05:00 +21°C° 0 mm 2 m/s 748 mmHg 83%
    06:00 +24°C° 0 mm 3 m/s 749 mmHg 78%
    07:00 +25°C° 0 mm 3 m/s 749 mmHg 72%
    08:00 +26°C° 0 mm 3 m/s 749 mmHg 69%
    09:00 +27°C° 0 mm 3 m/s 750 mmHg 66%
    10:00 +28°C° 0 mm 2 m/s 750 mmHg 63%
    11:00 +29°C° 0 mm 3 m/s 750 mmHg 61%
    12:00 +30°C° 0 mm 3 m/s 750 mmHg 59%
    13:00 +30°C° 0 mm 3 m/s 750 mmHg 56%
    14:00 +29°C° 0.9 mm 3 m/s 750 mmHg 67%
    15:00 +27°C° 0.9 mm 3 m/s 750 mmHg 78%
    16:00 +25°C° 0.9 mm 3 m/s 750 mmHg 88%
    17:00 +24°C° 0.6 mm 2 m/s 750 mmHg 90%
    18:00 +24°C° 0.6 mm 2 m/s 751 mmHg 92%
    19:00 +23°C° 0.6 mm 1 m/s 751 mmHg 94%
    20:00 +22°C° 0.5 mm 1 m/s 751 mmHg 95%
    21:00 +21°C° 0.5 mm 2 m/s 752 mmHg 96%
    22:00 +20°C° 0.5 mm 2 m/s 752 mmHg 97%
    23:00 +21°C° 0.1 mm 1 m/s 752 mmHg 97%

    15 Decembrie, Sâmbătă

    Timp Temperatura Precipitaţii Vânt Presiune Umiditate
    00:00 +21°C° 0.1 mm 1 m/s 752 mmHg 97%
    01:00 +20°C° 0.1 mm 1 m/s 752 mmHg 98%
    02:00 +20°C° 0.3 mm 1 m/s 752 mmHg 98%
    03:00 +20°C° 0.3 mm 1 m/s 752 mmHg 98%
    04:00 +20°C° 0.3 mm 1 m/s 752 mmHg 98%
    05:00 +22°C° 0.1 mm 1 m/s 753 mmHg 95%
    06:00 +23°C° 0.1 mm 1 m/s 753 mmHg 91%
    07:00 +24°C° 0.1 mm 1 m/s 753 mmHg 87%
    08:00 +26°C° 0 mm 2 m/s 753 mmHg 80%
    09:00 +28°C° 0 mm 2 m/s 753 mmHg 72%
    10:00 +29°C° 0 mm 3 m/s 753 mmHg 65%
    11:00 +30°C° 0.3 mm 4 m/s 753 mmHg 65%
    12:00 +32°C° 0.3 mm 5 m/s 752 mmHg 65%
    13:00 +32°C° 0.3 mm 6 m/s 752 mmHg 65%
    14:00 +32°C° 0.6 mm 7 m/s 752 mmHg 64%
    15:00 +33°C° 0.6 mm 7 m/s 752 mmHg 63%
    16:00 +33°C° 0.6 mm 8 m/s 751 mmHg 62%
    17:00 +32°C° 0.4 mm 8 m/s 752 mmHg 65%
    18:00 +31°C° 0.4 mm 8 m/s 752 mmHg 68%
    19:00 +29°C° 0.4 mm 8 m/s 753 mmHg 72%
    20:00 +28°C° 0.1 mm 8 m/s 753 mmHg 73%
    21:00 +27°C° 0.1 mm 7 m/s 754 mmHg 75%
    22:00 +26°C° 0.1 mm 7 m/s 754 mmHg 77%
    23:00 +26°C° 0 mm 7 m/s 754 mmHg 79%

    16 Decembrie, Duminică

    Timp Temperatura Precipitaţii Vânt Presiune Umiditate
    00:00 +24°C° 0 mm 6 m/s 754 mmHg 81%
    01:00 +24°C° 0 mm 6 m/s 754 mmHg 83%
    02:00 +23°C° 0.1 mm 6 m/s 754 mmHg 85%
    03:00 +23°C° 0.1 mm 5 m/s 754 mmHg 87%
    04:00 +22°C° 0.1 mm 5 m/s 755 mmHg 89%
    05:00 +23°C° 0.3 mm 5 m/s 755 mmHg 86%
    06:00 +25°C° 0.3 mm 5 m/s 755 mmHg 83%
    07:00 +26°C° 0.3 mm 5 m/s 756 mmHg 80%
    08:00 +27°C° 0.7 mm 5 m/s 756 mmHg 77%
    09:00 +28°C° 0.7 mm 5 m/s 756 mmHg 73%
    10:00 +29°C° 0.7 mm 5 m/s 756 mmHg 70%
    11:00 +29°C° 1.9 mm 6 m/s 755 mmHg 74%
    12:00 +29°C° 1.9 mm 6 m/s 755 mmHg 77%
    13:00 +29°C° 1.9 mm 7 m/s 754 mmHg 81%
    14:00 +29°C° 0.6 mm 7 m/s 754 mmHg 78%
    15:00 +29°C° 0.6 mm 7 m/s 754 mmHg 75%
    16:00 +29°C° 0.6 mm 7 m/s 754 mmHg 72%
    17:00 +28°C° 0 mm 7 m/s 754 mmHg 76%
    18:00 +27°C° 0 mm 6 m/s 754 mmHg 80%
    19:00 +26°C° 0 mm 6 m/s 755 mmHg 83%
    20:00 +24°C° 0 mm 6 m/s 755 mmHg 86%
    21:00 +23°C° 0 mm 6 m/s 755 mmHg 89%
    22:00 +23°C° 0 mm 6 m/s 755 mmHg 91%
    23:00 +22°C° 0 mm 5 m/s 755 mmHg 92%

    17 Decembrie, Luni

    Timp Temperatura Precipitaţii Vânt Presiune Umiditate
    00:00 +22°C° 0 mm 4 m/s 754 mmHg 93%
    01:00 +22°C° 0 mm 4 m/s 754 mmHg 95%
    02:00 +22°C° 0 mm 4 m/s 754 mmHg 96%
    03:00 +21°C° 0 mm 3 m/s 754 mmHg 97%
    04:00 +21°C° 0 mm 3 m/s 754 mmHg 97%
    05:00 +22°C° 0 mm 3 m/s 754 mmHg 92%
    06:00 +25°C° 0 mm 2 m/s 755 mmHg 86%
    07:00 +26°C° 0 mm 2 m/s 755 mmHg 81%
    08:00 +29°C° 0.1 mm 2 m/s 755 mmHg 73%
    09:00 +31°C° 0.1 mm 2 m/s 755 mmHg 65%
    10:00 +34°C° 0.1 mm 2 m/s 755 mmHg 57%
    11:00 +34°C° 0.2 mm 3 m/s 754 mmHg 56%
    12:00 +34°C° 0.2 mm 4 m/s 754 mmHg 55%
    13:00 +34°C° 0.2 mm 4 m/s 754 mmHg 54%
    14:00 +34°C° 0.1 mm 4 m/s 754 mmHg 56%
    15:00 +33°C° 0.1 mm 4 m/s 754 mmHg 57%
    16:00 +33°C° 0.1 mm 4 m/s 754 mmHg 59%
    17:00 +30°C° 0 mm 4 m/s 754 mmHg 68%
    18:00 +28°C° 0 mm 3 m/s 755 mmHg 77%
    19:00 +26°C° 0 mm 3 m/s 755 mmHg 86%
    20:00 +25°C° 0 mm 2 m/s 756 mmHg 90%
    21:00 +24°C° 0 mm 2 m/s 756 mmHg 94%
    22:00 +24°C° 0 mm 1 m/s 757 mmHg 98%
    23:00 +24°C° 0.1 mm 2 m/s 757 mmHg 98%
    Arată mai mult